EW7157 Weather Reports


Display with metric or nautical units.
time (UTC)temp
F
wind
direction
speed
MPH
gust
MPH
rain 1hr
in
rain 24hr
in
rain mn
in
humidity
%
barometer
mb
20260831084412 68 135 0.0 0.0 0.00 0.57 0.02 95 1041.2
20260831083430 68 135 0.0 0.0 0.00 0.57 0.02 95 1041.3
20260831082515 69 135 0.0 0.0 0.00 0.57 0.02 95 1041.5
20260831081614 69 135 0.0 0.0 0.00 0.57 0.02 95 1041.4
20260831080614 69 135 0.0 0.0 0.00 0.57 0.02 95 1041.5
20260831075616 69 135 0.0 0.0 0.00 0.57 0.02 94 1041.4
20260831074612 69 135 0.0 0.0 0.00 0.57 0.02 95 1041.3
20260831072615 69 135 0.0 0.0 0.00 0.57 0.02 95 1041.2
20260831064613 69 135 0.0 0.0 0.00 0.57 0.02 95 1041.4
20260831063613 70 135 0.0 0.0 0.00 0.57 0.02 95 1041.4
20260831062614 69 135 0.0 0.0 0.00 0.57 0.02 95 1041.3
20260831061613 69 135 0.0 0.0 0.00 0.57 0.02 94 1041.3
20260831060614 70 135 0.0 0.0 0.00 0.57 0.02 95 1041.2
20260831060515 70 135 0.0 0.0 0.00 0.57 0.02 95 1041.2
20260831060414 70 135 0.0 0.0 0.00 0.57 0.02 95 1041.1
20260831055512 70 135 0.0 0.0 0.00 0.57 0.02 95 1041.1
20260831054514 70 135 0.0 0.0 0.00 0.57 0.02 94 1041.2
20260831054413 70 135 0.0 0.0 0.00 0.57 0.02 95 1041.2
20260831053415 70 135 0.0 0.0 0.00 0.57 0.02 95 1041.1
20260831052416 70 135 0.0 0.0 0.00 0.57 0.02 94 1041.3
20260831050514 70 135 0.0 0.0 0.02 0.57 0.02 94 1041.3
20260831045413 70 135 0.0 0.0 0.02 0.57 0.02 94 1041.2
20260831044413 70 135 0.0 0.0 0.02 0.57 0.02 94 1041.4
20260831042416 70 135 0.0 0.0 0.02 0.57 0.02 94 1041.7
20260831042314 70 135 0.0 0.0 0.02 0.57 0.02 93 1041.7
20260831041315 70 135 0.0 0.0 0.01 0.57 0.01 94 1041.7
20260831040414 70 135 0.0 0.0 0.01 0.56 0.00 93 1041.6
20260831040314 70 135 0.0 0.0 0.01 0.56 0.00 93 1041.6
20260831035317 70 135 0.0 0.0 0.01 0.56 0.56 93 1041.7
20260831034318 70 135 0.0 0.0 0.02 0.56 0.56 93 1041.8
20260831033317 70 135 0.0 0.0 0.31 0.56 0.56 92 1041.6
20260831030218 70 135 0.0 0.0 0.55 0.55 0.55 91 1041.4
20260831025216 71 135 0.0 0.0 0.55 0.55 0.55 89 1041.3
20260831024218 72 135 0.0 1.0 0.53 0.53 0.52 89 1041.8
20260831024119 72 129 0.0 0.0 0.52 0.52 0.48 90 1042.0
20260831023117 74 207 1.0 5.0 0.20 0.20 0.18 90 1041.5
20260831022117 74 182 0.0 2.0 0.01 0.01 0.01 87 1041.4
20260831022017 74 202 0.0 1.0 0.01 0.01 0.01 87 1041.4
20260831021015 74 202 0.0 0.0 0.00 0.00 0.00 86 1041.3
20260831020017 74 202 0.0 0.0 0.00 0.00 0.00 86 1041.1
20260831015017 74 202 0.0 0.0 0.00 0.00 0.00 86 1041.2
20260831014016 74 202 0.0 0.0 0.00 0.00 0.00 86 1041.3
20260831011016 74 202 0.0 0.0 0.00 0.00 0.00 84 1041.1
20260831010017 74 202 0.0 0.0 0.00 0.00 0.00 85 1041.2
20260831005916 74 202 0.0 0.0 0.00 0.00 0.00 85 1041.1
20260831004917 74 202 0.0 0.0 0.00 0.00 0.00 85 1041.1
20260831004016 74 202 0.0 0.0 0.00 0.00 0.00 85 1041.1
20260831002018 75 202 0.0 0.0 0.00 0.00 0.00 83 1040.8
20260831000018 75 202 0.0 0.0 0.00 0.00 0.00 81 1040.5
20260830235015 75 202 0.0 0.0 0.00 0.00 0.00 79 1040.6
20260830234916 75 202 0.0 0.0 0.00 0.00 0.00 79 1040.7
20260830233917 76 202 0.0 0.0 0.00 0.00 0.00 79 1040.7
20260830232915 76 202 0.0 0.0 0.00 0.00 0.00 79 1040.7
20260830231917 77 202 0.0 0.0 0.00 0.00 0.00 78 1040.8
20260830230918 77 202 0.0 0.0 0.00 0.00 0.00 78 1040.9
20260830230817 77 202 0.0 0.0 0.00 0.00 0.00 78 1040.9
20260830225818 78 202 0.0 0.0 0.00 0.00 0.00 75 1040.9
20260830224818 78 202 0.0 0.0 0.00 0.00 0.00 75 1040.6
20260830223817 79 202 0.0 0.0 0.00 0.00 0.00 76 1040.7
20260830222915 79 202 0.0 0.0 0.00 0.00 0.00 76 1040.5
20260830221917 79 202 0.0 0.0 0.00 0.00 0.00 74 1040.6
20260830220823 80 202 0.0 0.0 0.00 0.00 0.00 73 1040.7
20260830215817 80 202 0.0 0.0 0.00 0.00 0.00 74 1040.5
20260830214817 80 202 0.0 0.0 0.00 0.00 0.00 74 1040.4
20260830214719 80 202 0.0 0.0 0.00 0.00 0.00 73 1040.4
20260830213816 80 202 0.0 0.0 0.00 0.00 0.00 72 1040.4
20260830212916 80 180 0.0 0.0 0.00 0.00 0.00 72 1040.4
20260830210917 81 180 0.0 0.0 0.00 0.00 0.00 71 1040.4
20260830205919 81 270 0.0 0.0 0.00 0.00 0.00 71 1040.5
20260830204918 81 360 0.0 0.0 0.00 0.00 0.00 70 1040.6
20260830203916 81 360 0.0 0.0 0.00 0.00 0.00 69 1040.6
20260830202916 82 225 0.0 0.0 0.00 0.00 0.00 66 1040.5
20260830201916 82 225 0.0 0.0 0.00 0.00 0.00 67 1040.5
20260830201819 81 225 0.0 0.0 0.00 0.00 0.00 68 1040.5
20260830200916 80 360 0.0 0.0 0.00 0.00 0.00 69 1040.7
20260830200818 80 360 0.0 0.0 0.00 0.00 0.00 69 1040.7
20260830195817 80 217 0.0 0.0 0.00 0.00 0.00 69 1041.0
20260830194817 82 360 0.0 0.0 0.00 0.00 0.00 67 1041.1
20260830193818 83 360 0.0 2.0 0.00 0.00 0.00 63 1040.9
20260830192916 84 360 0.0 1.0 0.00 0.00 0.00 62 1041.2
20260830191016 84 45 0.0 0.0 0.00 0.00 0.00 63 1041.3
20260830185116 84 360 0.0 0.0 0.00 0.00 0.00 65 1041.6
20260830183116 82 360 0.0 0.0 0.00 0.00 0.00 67 1041.8
20260830182116 81 9 0.0 2.0 0.00 0.00 0.00 69 1042.0
20260830181117 80 22 0.0 0.0 0.00 0.00 0.00 70 1042.1
20260830175218 80 119 0.0 0.0 0.00 0.00 0.00 69 1042.4
20260830174216 80 135 0.0 0.0 0.00 0.00 0.00 69 1042.6
20260830172315 79 315 0.0 0.0 0.00 0.00 0.00 73 1042.7
20260830170317 80 315 0.0 0.0 0.00 0.00 0.00 70 1043.1
20260830165416 81 360 0.0 0.0 0.00 0.00 0.00 69 1043.2
20260830163318 77 315 0.0 0.0 0.00 0.00 0.00 76 1043.1
20260830163217 77 315 0.0 0.0 0.00 0.00 0.00 76 1043.1
20260830162216 78 360 0.0 0.0 0.00 0.00 0.00 74 1043.5
20260830161216 78 360 0.0 0.0 0.00 0.00 0.00 74 1043.5
20260830161118 78 360 0.0 0.0 0.00 0.00 0.00 75 1043.5
20260830160118 78 180 0.0 0.0 0.00 0.00 0.00 74 1043.5
20260830155216 78 180 0.0 0.0 0.00 0.00 0.00 74 1043.5
20260830153218 79 45 0.0 0.0 0.00 0.00 0.00 72 1043.7
20260830151216 78 45 0.0 1.0 0.00 0.00 0.00 73 1043.7
20260830151116 78 45 0.0 1.0 0.00 0.00 0.00 73 1043.7
20260830150131 77 193 0.0 0.0 0.00 0.00 0.00 74 1043.7
20260830145217 76 21 0.0 0.0 0.00 0.00 0.00 78 1043.7
20260830143217 72 225 0.0 0.0 0.00 0.00 0.00 82 1044.0
20260830142315 70 360 0.0 0.0 0.00 0.00 0.00 83 1044.2
20260830135416 68 157 0.0 0.0 0.00 0.00 0.00 88 1044.4
20260830134416 67 157 0.0 0.0 0.00 0.00 0.00 89 1044.6
20260830133416 66 157 0.0 0.0 0.00 0.00 0.00 90 1044.8
20260830131418 65 157 0.0 0.0 0.00 0.00 0.00 91 1045.1
20260830130516 64 157 0.0 0.0 0.00 0.00 0.00 91 1045.2
20260830125518 63 157 0.0 0.0 0.00 0.00 0.00 91 1045.3
20260830124535 63 157 0.0 0.0 0.00 0.00 0.00 92 1045.2
20260830122516 61 157 0.0 0.0 0.00 0.00 0.00 91 1045.2
20260830121517 61 157 0.0 0.0 0.00 0.00 0.00 93 1045.3
20260830120615 60 157 0.0 0.0 0.00 0.00 0.00 93 1045.4
20260830114616 60 157 0.0 0.0 0.00 0.00 0.00 93 1045.3
20260830113618 59 157 0.0 0.0 0.00 0.00 0.00 92 1045.3
20260830111615 59 157 0.0 0.0 0.00 0.00 0.00 92 1045.2
20260830110617 58 157 0.0 0.0 0.00 0.00 0.00 93 1045.4
20260830105633 58 157 0.0 0.0 0.00 0.00 0.00 93 1045.4
20260830104720 58 157 0.0 0.0 0.00 0.00 0.00 92 1045.4
20260830103817 58 157 0.0 0.0 0.00 0.00 0.00 93 1045.2
20260830102817 58 157 0.0 0.0 0.00 0.00 0.00 93 1045.2
20260830101916 57 157 0.0 0.0 0.00 0.00 0.00 93 1045.2
20260830100916 57 157 0.0 0.0 0.00 0.00 0.00 93 1045.3
20260830093916 57 157 0.0 0.0 0.00 0.00 0.00 93 1045.2
20260830092918 57 157 0.0 0.0 0.00 0.00 0.00 93 1045.1
20260830091917 57 157 0.0 0.0 0.00 0.00 0.00 92 1045.2
20260830090916 57 157 0.0 0.0 0.00 0.00 0.00 93 1045.0
20260830085918 57 157 0.0 0.0 0.00 0.00 0.00 93 1044.9